Time,TemperatureF,DewpointF,PressureIn,WindDirection,WindDirectionDegrees,WindSpeedMPH,WindSpeedGustMPH,Humidity,HourlyPrecipIn,Conditions,Clouds,dailyrainin,SoftwareType,DateUTC
2013-06-15 17:02:00,76.0,52.0,29.88,SW,236,1.0,-999.0,44,-99.99,,,-99.99,,2013-06-15 21:02:00,
2013-06-15 17:12:00,75.0,51.0,29.88,SE,134,1.0,-999.0,43,-99.99,,,-99.99,,2013-06-15 21:12:00,
2013-06-15 17:22:00,75.0,50.0,29.88,SE,145,1.0,-999.0,42,-99.99,,,-99.99,,2013-06-15 21:22:00,
2013-06-15 17:34:00,74.0,50.0,29.88,NW,313,1.0,-999.0,43,-99.99,,,-99.99,,2013-06-15 21:34:00,
2013-06-15 17:42:00,75.0,46.0,29.88,WSW,252,1.0,-999.0,36,-99.99,,,-99.99,,2013-06-15 21:42:00,
2013-06-15 17:52:00,75.0,48.0,29.88,SSE,159,1.0,-999.0,38,-99.99,,,-99.99,,2013-06-15 21:52:00,
2013-06-15 18:01:00,74.0,45.0,29.88,SW,214,0.0,-999.0,36,-99.99,,,-99.99,,2013-06-15 22:01:00,
2013-06-15 18:11:00,75.0,47.0,29.88,NW,308,1.0,-999.0,37,-99.99,,,-99.99,,2013-06-15 22:11:00,
2013-06-15 18:22:00,75.0,47.0,29.88,NW,308,1.0,-999.0,37,-99.99,,,-99.99,,2013-06-15 22:22:00,
2013-06-15 18:33:00,75.0,51.0,29.88,NW,315,1.0,-999.0,43,-99.99,,,-99.99,,2013-06-15 22:33:00,
2013-06-15 19:02:00,72.0,54.0,29.88,NW,315,0.0,-999.0,54,-99.99,,,-99.99,,2013-06-15 23:02:00,
2013-06-15 19:12:00,71.0,52.0,29.88,NW,315,0.0,-999.0,52,-99.99,,,-99.99,,2013-06-15 23:12:00,
2013-06-15 19:22:00,70.0,55.0,29.89,NW,315,0.0,-999.0,60,-99.99,,,-99.99,,2013-06-15 23:22:00,
2013-06-15 19:33:00,69.0,55.0,29.89,NW,315,0.0,-999.0,61,-99.99,,,-99.99,,2013-06-15 23:33:00,
2013-06-15 21:02:00,63.0,55.0,29.90,NW,315,0.0,-999.0,76,-99.99,,,-99.99,,2013-06-16 01:02:00,
2013-06-15 21:12:00,62.0,55.0,29.91,NW,315,0.0,-999.0,77,-99.99,,,-99.99,,2013-06-16 01:12:00,
2013-06-15 21:22:00,61.0,54.0,29.91,NW,315,0.0,-999.0,79,-99.99,,,-99.99,,2013-06-16 01:22:00,
2013-06-15 21:33:00,61.0,55.0,29.92,NW,315,0.0,-999.0,80,-99.99,,,-99.99,,2013-06-16 01:33:00,
2013-06-15 21:42:00,60.0,54.0,29.92,NW,315,0.0,-999.0,81,-99.99,,,-99.99,,2013-06-16 01:42:00,
2013-06-15 21:53:00,59.0,54.0,29.92,NW,315,0.0,-999.0,82,-99.99,,,-99.99,,2013-06-16 01:53:00,
2013-06-15 22:02:00,59.0,54.0,29.92,NW,315,0.0,-999.0,82,-99.99,,,-99.99,,2013-06-16 02:02:00,
2013-06-15 22:12:00,59.0,54.0,29.93,NW,315,0.0,-999.0,83,-99.99,,,-99.99,,2013-06-16 02:12:00,
2013-06-15 22:22:00,58.0,53.0,29.93,NW,315,0.0,-999.0,83,-99.99,,,-99.99,,2013-06-16 02:22:00,
2013-06-15 22:33:00,58.0,53.0,29.93,NW,315,0.0,-999.0,84,-99.99,,,-99.99,,2013-06-16 02:33:00,
2013-06-15 22:43:00,57.0,53.0,29.93,NW,315,0.0,-999.0,85,-99.99,,,-99.99,,2013-06-16 02:43:00,
2013-06-15 22:53:00,57.0,53.0,29.93,NW,315,0.0,-999.0,85,-99.99,,,-99.99,,2013-06-16 02:53:00,
2013-06-15 23:02:00,56.0,52.0,29.94,NW,315,0.0,-999.0,85,-99.99,,,-99.99,,2013-06-16 03:02:00,
2013-06-15 23:12:00,56.0,52.0,29.93,NW,315,0.0,-999.0,86,-99.99,,,-99.99,,2013-06-16 03:12:00,
2013-06-15 23:22:00,56.0,52.0,29.94,NW,315,0.0,-999.0,86,-99.99,,,-99.99,,2013-06-16 03:22:00,
2013-06-15 23:34:00,55.0,51.0,29.94,NW,315,0.0,-999.0,86,-99.99,,,-99.99,,2013-06-16 03:34:00,
2013-06-15 23:43:00,55.0,51.0,29.94,NW,315,0.0,-999.0,86,-99.99,,,-99.99,,2013-06-16 03:43:00,
2013-06-15 23:53:00,55.0,51.0,29.95,NW,315,0.0,-999.0,86,-99.99,,,-99.99,,2013-06-16 03:53:00,